FW8680 Weather Reports


Display with metric or nautical units.
time (UTC)temp
F
wind
direction
speed
MPH
gust
MPH
rain 1hr
in
rain 24hr
in
rain mn
in
humidity
%
barometer
mb
20260505111547 38 310 0.0 1.0 0.00 0.00 0.00 81 1013.9
20260505101554 40 0 0.0 2.0 0.00 0.00 0.00 77 1013.9
20260505100050 40 242 0.0 3.0 0.00 0.00 0.00 76 1013.9
20260505094547 40 0 0.0 2.0 0.00 0.00 0.00 76 1014.2
20260505093044 41 0 1.0 4.0 0.00 0.00 0.00 75 1014.2
20260505091548 41 298 0.0 4.0 0.00 0.00 0.00 75 1014.4
20260505090059 42 253 1.0 4.0 0.00 0.00 0.00 74 1014.5
20260505084552 41 227 3.0 5.0 0.00 0.00 0.00 75 1014.7
20260505083054 41 244 0.0 3.0 0.00 0.00 0.00 75 1015.0
20260505081551 41 255 1.0 2.0 0.00 0.00 0.00 75 1015.0
20260505080053 41 0 0.0 0.0 0.00 0.00 0.00 73 1015.3
20260505074550 41 0 0.0 0.0 0.00 0.00 0.00 73 1015.3
20260505073051 42 0 0.0 1.0 0.00 0.00 0.00 71 1015.5
20260505071545 42 0 0.0 1.0 0.00 0.00 0.00 71 1015.8
20260505070051 42 0 0.0 1.0 0.00 0.00 0.00 70 1015.6
20260505064556 43 0 0.0 2.0 0.00 0.00 0.00 69 1015.6
20260505063047 42 94 2.0 3.0 0.00 0.00 0.00 69 1015.8
20260505061548 43 148 0.0 1.0 0.00 0.00 0.00 66 1015.4
20260505060050 43 167 1.0 6.0 0.00 0.00 0.00 65 1015.6
20260505054549 44 163 0.0 4.0 0.00 0.00 0.00 62 1015.3
20260505053059 45 180 1.0 3.0 0.00 0.00 0.00 58 1015.5
20260505051549 47 331 0.0 4.0 0.00 0.00 0.00 53 1015.2
20260505041550 53 309 1.0 9.0 0.00 0.00 0.00 25 1014.6
20260505040053 53 300 0.0 9.0 0.00 0.00 0.00 24 1014.5
20260505034545 54 318 3.0 12.0 0.00 0.00 0.00 23 1014.4
20260505033106 55 59 1.0 25.0 0.00 0.00 0.00 22 1014.0
20260505031542 55 242 8.0 22.0 0.00 0.00 0.00 22 1013.8
20260505030052 55 250 11.0 37.0 0.00 0.00 0.00 21 1013.3
20260505024550 55 313 13.0 36.0 0.00 0.00 0.00 19 1012.3
20260505023100 56 228 20.0 41.0 0.00 0.00 0.00 19 1012.3
20260505021545 56 251 23.0 45.0 0.00 0.00 0.00 19 1012.5
20260505020050 56 261 19.0 36.0 0.00 0.00 0.00 18 1012.3
20260505014545 57 242 21.0 35.0 0.00 0.00 0.00 18 1012.3
20260505013043 57 275 17.0 33.0 0.00 0.00 0.00 20 1012.2
20260505011557 58 227 12.0 24.0 0.00 0.00 0.00 20 1012.0
20260505010049 58 268 11.0 22.0 0.00 0.00 0.00 20 1011.9
20260505004549 59 277 13.0 26.0 0.00 0.00 0.00 19 1012.0
20260505003046 59 151 13.0 30.0 0.00 0.00 0.00 19 1011.9
20260505001552 59 196 12.0 23.0 0.00 0.00 0.00 21 1011.9
20260505000056 60 297 13.0 22.0 0.00 0.00 0.00 22 1011.8
20260504234613 60 299 13.0 23.0 0.00 0.00 0.00 22 1011.8
20260504233050 60 238 18.0 27.0 0.00 0.00 0.00 23 1011.8
20260504231554 61 227 14.0 27.0 0.00 0.00 0.00 23 1011.7
20260504230046 61 199 13.0 26.0 0.00 0.00 0.00 24 1011.7
20260504224600 62 178 11.0 28.0 0.00 0.00 0.00 24 1011.5
20260504223050 62 212 11.0 27.0 0.00 0.00 0.00 25 1012.0
20260504221603 62 200 12.0 26.0 0.00 0.00 0.00 25 1012.1
20260504220057 62 227 14.0 27.0 0.00 0.00 0.00 25 1012.3
20260504214556 62 231 8.0 19.0 0.00 0.00 0.00 25 1012.5
20260504213102 62 279 15.0 21.0 0.00 0.00 0.00 25 1012.9
20260504211554 62 295 9.0 18.0 0.00 0.00 0.00 26 1012.9
20260504210054 61 285 12.0 27.0 0.00 0.00 0.00 25 1013.4
20260504204625 61 279 11.0 21.0 0.00 0.00 0.00 24 1013.7
20260504203050 60 290 15.0 29.0 0.00 0.00 0.00 23 1013.9
20260504201554 61 254 11.0 21.0 0.00 0.00 0.00 26 1013.9
20260504200055 60 250 10.0 23.0 0.00 0.00 0.00 28 1014.3
20260504194555 59 250 14.0 19.0 0.00 0.00 0.00 28 1014.4
20260504193045 59 289 12.0 23.0 0.00 0.00 0.00 29 1014.6
20260504191549 59 252 9.0 21.0 0.00 0.00 0.00 30 1014.9
20260504190056 58 263 16.0 23.0 0.00 0.00 0.00 31 1015.1
20260504184602 58 284 13.0 22.0 0.00 0.00 0.00 32 1015.2
20260504183054 57 243 15.0 24.0 0.00 0.00 0.00 34 1015.5
20260504181550 57 273 17.0 27.0 0.00 0.00 0.00 34 1015.5
20260504180051 56 277 16.0 27.0 0.00 0.00 0.00 38 1015.8
20260504174550 56 282 17.0 27.0 0.00 0.00 0.00 39 1015.5
20260504173049 55 226 20.0 38.0 0.00 0.00 0.00 41 1015.2
20260504171549 55 251 16.0 38.0 0.00 0.00 0.00 41 1015.5